Location: Plainartige
(45.6866°N, 1.7993°E)
Time: 14:37:37
(UTC+00:00)

Okean 3 - Pass Details

Date: 03 March 2021
Orbit: 577 x 600 km, 82.5° (Epoch: 15 April)

Event Time Altitude Azimuth Distance (km) Brightness Sun altitude
Rises 20:13:22 0° 345° (NNW) 2,832 7.4 -26.8°
Reaches altitude 10° 20:15:37 10° 340° (NNW) 1,930 6.5 -27.2°
Enters shadow 20:19:34 48° 274° (W) 781 4.3 -27.8°
